Powrót do katalogu

STARLINK-3670

AktywnyŁącznośćVLEO
NORAD 52106·PAYLOAD·🇺🇸 United States

Wystrzelony Mar 19, 2022 z Cape Canaveral Space Force Station

Loading…

Następne Przeloty (najbliższe 24 godziny)

TLE

ŚwieżeSource: CelesTrak SupGP

Epoka: Sep 14, 2026, 14:27 UTC

1 52106C 22029U   26257.60256944  .00045484  00000+0  13441-2 0  2573
2 52106  53.1590 305.2439 0001341  73.3314 349.0208 15.34361588    16

Śledź STARLINK-3670 w czasie rzeczywistym z AllMySat

Download on the App Store